EN

Hourly Weather Daudnagar

Today, 27 November, Friday

Time Temperature Precipitation Wind Pressure Humidity
00:00 +23°C° 0 mm 1 mps 754 mmHg 40%
01:00 +23°C° 0 mm 1 mps 754 mmHg 40%
02:00 +23°C° 0 mm 1 mps 754 mmHg 41%
03:00 +21°C° 0 mm 0 mps 754 mmHg 41%
04:00 +22°C° 0 mm 1 mps 754 mmHg 41%
05:00 +22°C° 0 mm 1 mps 755 mmHg 42%
06:00 +22°C° 0 mm 1 mps 755 mmHg 43%
07:00 +23°C° 0 mm 1 mps 755 mmHg 45%
08:00 +23°C° 0 mm 1 mps 756 mmHg 46%
09:00 +23°C° 0 mm 2 mps 757 mmHg 47%
10:00 +24°C° 0 mm 2 mps 756 mmHg 45%
11:00 +25°C° 0 mm 2 mps 756 mmHg 43%
12:00 +25°C° 0 mm 2 mps 756 mmHg 50%
13:00 +26°C° 0 mm 2 mps 756 mmHg 45%
14:00 +27°C° 0 mm 1 mps 755 mmHg 40%
15:00 +28°C° 0 mm 1 mps 754 mmHg 35%
16:00 +27°C° 0 mm 1 mps 754 mmHg 39%
17:00 +25°C° 0 mm 1 mps 754 mmHg 42%
18:00 +24°C° 0 mm 1 mps 754 mmHg 49%
19:00 +23°C° 0 mm 1 mps 755 mmHg 54%
20:00 +21°C° 0 mm 2 mps 755 mmHg 59%
21:00 +20°C° 0 mm 2 mps 756 mmHg 64%
22:00 +20°C° 0 mm 2 mps 756 mmHg 65%
23:00 +19°C° 0 mm 2 mps 756 mmHg 66%

Tomorrow, 28 November, Saturday

Time Temperature Precipitation Wind Pressure Humidity
00:00 +19°C° 0 mm 2 mps 756 mmHg 67%
01:00 +18°C° 0 mm 2 mps 755 mmHg 65%
02:00 +18°C° 0 mm 2 mps 755 mmHg 63%
03:00 +18°C° 0 mm 2 mps 754 mmHg 61%
04:00 +17°C° 0 mm 2 mps 754 mmHg 60%
05:00 +17°C° 0 mm 2 mps 755 mmHg 58%
06:00 +17°C° 0 mm 2 mps 755 mmHg 57%
07:00 +18°C° 0 mm 2 mps 755 mmHg 53%
08:00 +20°C° 0 mm 2 mps 756 mmHg 50%
09:00 +21°C° 0 mm 2 mps 756 mmHg 47%
10:00 +24°C° 0 mm 2 mps 756 mmHg 41%
11:00 +26°C° 0 mm 3 mps 756 mmHg 35%
12:00 +28°C° 0 mm 3 mps 755 mmHg 29%
13:00 +29°C° 0 mm 3 mps 755 mmHg 27%
14:00 +29°C° 0 mm 3 mps 754 mmHg 25%
15:00 +30°C° 0 mm 3 mps 753 mmHg 24%
16:00 +28°C° 0 mm 3 mps 753 mmHg 27%
17:00 +26°C° 0 mm 2 mps 753 mmHg 31%
18:00 +24°C° 0 mm 2 mps 753 mmHg 34%
19:00 +23°C° 0 mm 2 mps 753 mmHg 35%
20:00 +21°C° 0 mm 2 mps 754 mmHg 37%
21:00 +21°C° 0 mm 2 mps 754 mmHg 38%
22:00 +20°C° 0 mm 2 mps 754 mmHg 39%
23:00 +20°C° 0 mm 2 mps 754 mmHg 41%

Day after tomorrow, 29 November, Sunday

Time Temperature Precipitation Wind Pressure Humidity
00:00 +20°C° 0 mm 1 mps 754 mmHg 42%
01:00 +18°C° 0 mm 2 mps 754 mmHg 43%
02:00 +18°C° 0 mm 2 mps 754 mmHg 44%
03:00 +18°C° 0 mm 2 mps 754 mmHg 45%
04:00 +18°C° 0 mm 1 mps 754 mmHg 46%
05:00 +18°C° 0 mm 1 mps 754 mmHg 47%
06:00 +16°C° 0 mm 1 mps 754 mmHg 49%
07:00 +19°C° 0 mm 1 mps 755 mmHg 46%
08:00 +21°C° 0 mm 1 mps 755 mmHg 42%
09:00 +22°C° 0 mm 1 mps 756 mmHg 39%
10:00 +24°C° 0 mm 2 mps 756 mmHg 35%
11:00 +26°C° 0 mm 2 mps 755 mmHg 31%
12:00 +28°C° 0 mm 2 mps 755 mmHg 27%
13:00 +28°C° 0 mm 2 mps 754 mmHg 26%
14:00 +29°C° 0 mm 3 mps 753 mmHg 25%
15:00 +30°C° 0 mm 3 mps 752 mmHg 24%
16:00 +28°C° 0 mm 2 mps 752 mmHg 27%
17:00 +26°C° 0 mm 2 mps 752 mmHg 31%
18:00 +24°C° 0 mm 1 mps 752 mmHg 34%
19:00 +23°C° 0 mm 1 mps 753 mmHg 35%
20:00 +22°C° 0 mm 1 mps 753 mmHg 36%
21:00 +21°C° 0 mm 1 mps 753 mmHg 37%
22:00 +21°C° 0 mm 1 mps 753 mmHg 38%
23:00 +20°C° 0 mm 1 mps 753 mmHg 40%

30 November, Monday

Time Temperature Precipitation Wind Pressure Humidity
00:00 +19°C° 0 mm 1 mps 753 mmHg 41%
01:00 +19°C° 0 mm 1 mps 753 mmHg 42%
02:00 +19°C° 0 mm 1 mps 753 mmHg 43%
03:00 +18°C° 0 mm 1 mps 753 mmHg 44%
04:00 +18°C° 0 mm 1 mps 753 mmHg 45%
05:00 +16°C° 0 mm 1 mps 753 mmHg 46%
06:00 +16°C° 0 mm 1 mps 753 mmHg 48%
07:00 +18°C° 0 mm 1 mps 754 mmHg 45%
08:00 +20°C° 0 mm 1 mps 754 mmHg 43%
09:00 +21°C° 0 mm 1 mps 755 mmHg 40%
10:00 +23°C° 0 mm 1 mps 755 mmHg 36%
11:00 +25°C° 0 mm 1 mps 755 mmHg 32%
12:00 +27°C° 0 mm 1 mps 754 mmHg 28%
13:00 +28°C° 0 mm 1 mps 754 mmHg 26%
14:00 +28°C° 0 mm 1 mps 753 mmHg 25%
15:00 +29°C° 0 mm 1 mps 752 mmHg 23%
16:00 +27°C° 0 mm 1 mps 752 mmHg 26%
17:00 +23°C° 0 mm 0 mps 752 mmHg 29%
18:00 +21°C° 0 mm 0 mps 752 mmHg 32%
19:00 +21°C° 0 mm 0 mps 753 mmHg 33%
20:00 +20°C° 0 mm 0 mps 753 mmHg 34%
21:00 +19°C° 0 mm 0 mps 754 mmHg 35%
22:00 +21°C° 0 mm 1 mps 754 mmHg 37%
23:00 +20°C° 0 mm 1 mps 754 mmHg 38%

1 December, Tuesday

Time Temperature Precipitation Wind Pressure Humidity
00:00 +20°C° 0 mm 1 mps 754 mmHg 39%
01:00 +19°C° 0 mm 1 mps 753 mmHg 40%
02:00 +19°C° 0 mm 1 mps 753 mmHg 42%
03:00 +18°C° 0 mm 1 mps 753 mmHg 43%
04:00 +18°C° 0 mm 1 mps 753 mmHg 44%
05:00 +16°C° 0 mm 1 mps 753 mmHg 46%
06:00 +16°C° 0 mm 1 mps 753 mmHg 47%
07:00 +19°C° 0 mm 1 mps 754 mmHg 45%
08:00 +20°C° 0 mm 1 mps 755 mmHg 43%
09:00 +21°C° 0 mm 1 mps 755 mmHg 41%
10:00 +24°C° 0 mm 1 mps 755 mmHg 36%
11:00 +26°C° 0 mm 1 mps 755 mmHg 32%
12:00 +26°C° 0 mm 0 mps 755 mmHg 27%
13:00 +26°C° 0 mm 0 mps 754 mmHg 26%
14:00 +27°C° 0 mm 0 mps 753 mmHg 24%
15:00 +27°C° 0 mm 0 mps 752 mmHg 23%
16:00 +25°C° 0 mm 0 mps 752 mmHg 26%
17:00 +23°C° 0 mm 0 mps 752 mmHg 29%
18:00 +22°C° 0 mm 0 mps 752 mmHg 31%
19:00 +21°C° 0 mm 0 mps 753 mmHg 33%
20:00 +20°C° 0 mm 0 mps 753 mmHg 34%
21:00 +20°C° 0 mm 0 mps 753 mmHg 35%
22:00 +19°C° 0 mm 0 mps 753 mmHg 36%
23:00 +21°C° 0 mm 1 mps 753 mmHg 37%

2 December, Wednesday

Time Temperature Precipitation Wind Pressure Humidity
00:00 +20°C° 0 mm 1 mps 753 mmHg 38%
01:00 +20°C° 0 mm 1 mps 753 mmHg 40%
02:00 +19°C° 0 mm 1 mps 753 mmHg 41%
03:00 +19°C° 0 mm 1 mps 752 mmHg 43%
04:00 +18°C° 0 mm 1 mps 752 mmHg 44%
05:00 +18°C° 0 mm 1 mps 752 mmHg 46%
06:00 +16°C° 0 mm 2 mps 753 mmHg 48%
07:00 +18°C° 0 mm 2 mps 753 mmHg 45%
08:00 +19°C° 0 mm 2 mps 754 mmHg 43%
09:00 +21°C° 0 mm 2 mps 754 mmHg 40%
10:00 +24°C° 0 mm 2 mps 754 mmHg 36%
11:00 +26°C° 0 mm 2 mps 754 mmHg 31%
12:00 +28°C° 0 mm 2 mps 753 mmHg 27%
13:00 +28°C° 0 mm 2 mps 752 mmHg 25%
14:00 +29°C° 0 mm 2 mps 752 mmHg 24%
15:00 +29°C° 0 mm 2 mps 751 mmHg 22%
16:00 +27°C° 0 mm 2 mps 751 mmHg 25%
17:00 +26°C° 0 mm 2 mps 751 mmHg 28%
18:00 +24°C° 0 mm 1 mps 750 mmHg 32%
19:00 +23°C° 0 mm 1 mps 751 mmHg 33%
20:00 +22°C° 0 mm 1 mps 751 mmHg 34%
21:00 +21°C° 0 mm 1 mps 752 mmHg 35%
22:00 +21°C° 0 mm 1 mps 752 mmHg 36%
23:00 +20°C° 0 mm 1 mps 751 mmHg 37%
Show more